Regional Weather Roundup
Issued by NWS

Home | Current Version | Previous Version | Text Only | Print | Product List | Glossary Off
Versions: 1 2 3 4 5 6 7 8 9 10 11 12 13 14 15 16 17 18 19 20 21 22 23 24 25 26 27 28 29 30 31 32 33 34 35 36 37 38 39 40 41 42 43 44 45 46 47 48 49 50

000
ASUS43 KDMX 250807
RWRIA

WEATHER ROUNDUP FOR IOWA
NATIONAL WEATHER SERVICE DES MOINES IA
300 AM CDT MON MAY 25 2015

NOTE: "FAIR" INDICATES FEW OR NO CLOUDS BELOW 12,000 FEET WITH NO
SIGNIFICANT WEATHER AND/OR OBSTRUCTIONS TO VISIBILITY.

* - THESE STATIONS ARE NOT NWS STATIONS...THUS NOT UNDER NWS
QUALITY CONTROL.  THEY ALSO DO NOT REPORT WEATHER SUCH
AS PRECIPITATION OR FOG.

IAZ001>003-012>014-020>022-031>034-043>046-250900-
   NORTHWEST IOWA

CITY           SKY/WX    TMP DP  RH WIND       PRES   REMARKS
CARROLL *      MOCLDY    63  63 100 W8        29.74F
CHEROKEE *     CLOUDY    61  61 100 CALM      29.73F FOG
DENISON *      CLOUDY    63  63 100 SW7       29.73F
LE MARS *      CLOUDY    61  61 100 SW6       29.75S
ORANGE CITY *  CLOUDY    57  57 100 W6        29.74S FOG
SHELDON *      FOG       59  59 100 W5        29.72S VSB 1/4
SIOUX CITY     CLOUDY    61  58  90 W8        29.75S
SPENCER        CLOUDY    61  60  97 SW10      29.72F
STORM LAKE *   CLOUDY    61  61 100 SW7       29.75F FOG
$$

IAZ055>058-069>071-079>083-090>094-250900-
   SOUTHWEST IOWA

CITY           SKY/WX    TMP DP  RH WIND       PRES   REMARKS
ATLANTIC *     MOCLDY    63  63 100 S6        29.77S
AUDUBON *      CLEAR     63  59  88 SW6       29.76F
CLARINDA *     DRIZZLE   63  63 100 S6        29.81R
COUNCIL BLFS * CLOUDY    63  63 100 S6        29.78S
CRESTON *      CLOUDY    63  63 100 SW7       29.78F
HARLAN  *      MOCLDY    63  63 100 SW7       29.79F
LAMONI         CLOUDY    64  61  90 SW9       29.80S
RED OAK *      CLOUDY    63  63 100 S6        29.78S
SHENANDOAH *   CLOUDY    63  63 100 S7        29.79S
$$

IAZ047>049-059>061-072>074-084-250900-
   CENTRAL IOWA

CITY           SKY/WX    TMP DP  RH WIND       PRES   REMARKS
AMES           CLOUDY    64  62  93 SW8       29.74F
ANKENY *       DRIZZLE   63  63 100 SW7       29.75S
CHARITON *       N/A     63  61  94 SW10      29.78F
DES MOINES     CLOUDY    64  61  90 SW10      29.76S
GRINNELL*      DRIZZLE   63  61  94 S7        29.77S
KNOXVILLE *    CLOUDY    63  61  94 SW9       29.76F FOG
MARSHALLTOWN   LGT RAIN  63  62  97 S8        29.74F FOG
PELLA *        DRIZZLE   63  63 100 SW8       29.78S
PERRY *        CLOUDY    63  61  94 SW7       29.74F
$$

IAZ004>006-015-016-023>025-035-036-250900-
   NORTH CENTRAL IOWA

CITY           SKY/WX    TMP DP  RH WIND       PRES   REMARKS
ALGONA *       CLOUDY    61  61 100 SW7       29.73S FOG
CLARION *      CLOUDY    63  63 100 SW7       29.73S FOG
ESTHERVILLE    CLOUDY    60  59  96 SW12      29.70F
FORT DODGE *   CLOUDY    61  57  88 SW5       29.75S
MASON CITY     CLOUDY    63  62  97 SW7       29.73S
FOREST CITY *  CLOUDY    61  61 100 SW6       29.72S FOG
IOWA FALLS *   CLOUDY    64  63  94 S8        29.74F FOG
$$

IAZ007>011-017>019-026>030-037>042-050>054-066-250900-
   NORTHEAST IOWA

CITY           SKY/WX    TMP DP  RH WIND       PRES   REMARKS
CEDAR RAPIDS   LGT RAIN  64  64 100 S7        29.75F FOG
CHARLES CITY * CLOUDY    63  63 100 S8        29.74S
CLINTON *      CLOUDY    66  63  88 SE7       29.78F
DECORAH *      CLOUDY    64  64 100 S6G12     29.72F
DUBUQUE        RAIN      65  64  97 S8        29.76F FOG
MONTICELLO *   CLOUDY    66  66 100 S7        29.75F
OELWEIN *      CLOUDY    64  64 100 SW10      29.75F
WATERLOO       RAIN      63  62  97 SW7       29.74S FOG
$$

IAZ064-065-067-068-078-250900-
   EAST CENTRAL IOWA

CITY           SKY/WX    TMP DP  RH WIND       PRES   REMARKS
DAVENPORT      CLOUDY    66  64  93 E8        29.75F
IOWA CITY      LGT RAIN  65  63  93 SW7       29.77S
MT. PLEASANT * LGT RAIN  64  64 100 W8        29.76S
MUSCATINE *    LGT RAIN  66  66 100 W5        29.75S
$$

IAZ062-063-075>077-085>089-095>099-250900-
   SOUTHEAST IOWA

CITY           SKY/WX    TMP DP  RH WIND       PRES   REMARKS
BURLINGTON     LGT RAIN  67  66  97 SW8       29.76R
FAIRFIELD *    CLOUDY    64  63  94 W7        29.78S
FORT MADISON * DRIZZLE   66  64  94 SW7       29.78R
KEOKUK *       LGT RAIN  66  66 100 S6G13     29.77S
OSKALOOSA *    CLOUDY    63  63 100 SW7       29.77F
CENTERVILLE *  MOCLDY    63  63 100 SW8       29.80F
OTTUMWA        CLOUDY    63  63 100 SW7       29.77S
WASHINGTON *   CLOUDY    64  64 100 W9        29.78F
$$

ABBREVIATIONS USED IN REMARKS
   TC - TEMPERATURES IN CELSIUS
  WCI - WIND CHILL INDEX
   HX - HEAT INDEX
  VSB - VISIBILITY
$$




USA.gov is the U.S. government's official web portal to all federal, state and local government web resources and services.